Vilalleons





Hora UTC 22:30
Temperatura 6.2 ºC
Humitat 96.0 %
Pressió 1016.9 hPa
Pluja 1.4 mm
Velocitat vent 0.0 km/h
Direcció vent ESE

Dades diàries 2020-03-31



Hora UTC (hivern +1h; estiu +2h)
Temperatura (ºC) Humitat (%) Pressió (hPa) Velocitat vent (km/h) Precipitació (mm)
Hora UTC Aire Humitat Pressió Vel. Dir. Vel. Max Dir. Intent. màx 5 min.
00:05 4.6 96.0 1015.0 1.6 WNW 3.2 0.0
00:10 4.6 96.0 1015.0 3.2 SSW 4.8 0.0
00:10 4.6 96.0 1015.0 1.6 SSW 4.8 0.0
00:20 4.5 96.0 1015.0 0.0 SSW 3.2 0.0
00:25 4.6 96.0 1015.0 0.0 SSW 1.6 0.0
00:30 4.6 96.0 1015.1 1.6 SSW 3.2 0.0
00:35 4.6 96.0 1015.0 0.0 SSW 3.2 0.0
00:40 4.6 96.0 1014.8 0.0 SSW 1.6 0.0
00:45 4.7 96.0 1014.8 1.6 SSW 1.6 0.0
00:50 4.7 96.0 1014.7 0.0 SSW 3.2 0.0
00:55 4.7 96.0 1014.7 0.0 SSW 3.2 0.0
01:00 4.8 96.0 1014.7 0.0 SSW 1.6 0.0
01:05 4.8 96.0 1014.5 4.8 ESE 9.7 0.0
01:10 4.8 96.0 1014.6 3.2 ESE 9.7 0.0
01:10 4.7 96.0 1014.5 3.2 ESE 9.7 0.0
01:20 4.8 95.0 1014.5 0.0 E 6.4 0.0
01:25 4.8 95.0 1014.4 0.0 E 4.8 0.0
01:30 4.9 95.0 1014.3 3.2 NE 6.4 0.0
01:35 4.9 95.0 1014.2 3.2 ESE 6.4 0.0
01:40 4.9 95.0 1014.2 1.6 E 12.9 0.0
01:45 5.1 94.0 1014.2 8.0 SE 14.5 0.0
01:50 5.1 94.0 1014.1 1.6 ESE 14.5 0.0
01:55 5.2 94.0 1014.3 3.2 ESE 11.3 0.0
02:00 5.2 94.0 1014.1 1.6 E 11.3 0.0
02:05 5.3 94.0 1014.1 4.8 E 14.5 0.0
02:10 5.3 94.0 1014.0 0.0 E 14.5 0.0
02:10 5.3 94.0 1014.0 1.6 E 8.0 0.0
02:20 5.3 94.0 1014.1 1.6 E 6.4 0.0
02:25 5.3 94.0 1014.2 1.6 NE 6.4 0.0
02:30 5.3 94.0 1014.2 3.2 N 6.4 0.0
02:35 5.3 94.0 1014.2 1.6 NNE 6.4 0.0
02:40 5.3 94.0 1014.1 3.2 NE 6.4 0.0
02:45 5.3 94.0 1014.2 1.6 NE 8.0 0.0
02:50 5.3 94.0 1014.2 1.6 NE 8.0 0.0
02:55 5.3 94.0 1014.2 0.0 SE 8.0 0.0
03:00 5.3 93.0 1014.0 6.4 E 11.3 0.0
03:05 5.2 94.0 1014.0 1.6 E 9.7 0.0
03:10 5.2 94.0 1013.9 6.4 ESE 12.9 0.0
03:10 5.2 93.0 1014.0 3.2 ESE 14.5 0.0
03:20 5.2 93.0 1014.0 6.4 ESE 14.5 0.0
03:25 5.1 93.0 1014.0 4.8 SE 12.9 0.0
03:30 5.1 93.0 1013.9 6.4 E 17.7 0.0
03:35 5.0 93.0 1013.9 9.7 E 20.9 0.0
03:40 5.0 93.0 1014.0 11.3 ESE 20.9 0.0
03:45 5.0 93.0 1014.1 6.4 E 16.1 0.0
03:50 5.0 93.0 1014.2 6.4 ESE 14.5 0.0
03:55 5.0 92.0 1014.3 6.4 E 20.9 0.0
04:00 5.0 91.0 1014.5 11.3 SE 20.9 0.0
04:05 5.0 91.0 1014.5 16.1 ESE 17.7 0.0
04:10 5.0 91.0 1014.4 12.9 E 17.7 0.0
04:10 5.0 91.0 1014.4 20.9 E 20.9 0.0
04:20 5.0 91.0 1014.5 6.4 SE 20.9 0.0
04:25 5.0 92.0 1014.5 9.7 ESE 16.1 0.0
04:30 4.9 92.0 1014.4 12.9 ESE 16.1 0.0
04:35 5.0 92.0 1014.4 6.4 ENE 17.7 0.0
04:40 5.0 92.0 1014.5 1.6 E 17.7 0.0
04:45 5.0 92.0 1014.4 3.2 NW 12.9 0.0
04:50 5.0 92.0 1014.5 1.6 N 12.9 0.0
04:55 4.9 92.0 1014.3 3.2 ENE 9.7 0.0
05:00 4.9 92.0 1014.3 12.9 ESE 12.9 0.0
05:05 4.9 92.0 1014.3 6.4 ENE 12.9 0.0
05:10 4.8 92.0 1014.4 17.7 ESE 17.7 0.0
05:10 4.8 92.0 1014.2 6.4 ESE 17.7 0.0
05:20 4.8 93.0 1014.1 9.7 ESE 19.3 0.0
05:25 4.8 93.0 1014.3 4.8 E 17.7 0.0
05:30 4.7 93.0 1014.3 3.2 E 17.7 0.0
05:35 4.8 93.0 1014.5 8.0 SE 14.5 0.0
05:40 4.8 93.0 1014.7 1.6 ESE 12.9 0.0
05:45 4.9 93.0 1014.8 4.8 SE 11.3 0.0
05:50 4.9 93.0 1014.8 3.2 WNW 11.3 0.0
05:55 4.9 93.0 1015.0 3.2 WNW 6.4 0.0
06:00 4.9 93.0 1015.3 4.8 WSW 8.0 0.0
06:05 4.9 93.0 1015.4 0.0 WSW 8.0 0.0
06:10 4.9 93.0 1015.4 3.2 NE 6.4 0.0
06:10 5.0 94.0 1015.4 3.2 ENE 6.4 0.0
06:20 5.1 93.0 1015.4 1.6 NE 6.4 0.0
06:25 5.1 93.0 1015.5 0.0 E 9.7 0.0
06:30 5.2 93.0 1015.2 0.0 E 9.7 0.0
06:35 5.2 93.0 1015.4 3.2 ENE 4.8 0.0
06:40 5.2 92.0 1015.2 1.6 ENE 8.0 0.0
06:45 5.3 93.0 1015.2 1.6 E 9.7 0.0
06:50 5.3 93.0 1015.2 1.6 ESE 9.7 0.0
06:55 5.3 93.0 1015.3 1.6 ESE 6.4 0.0
07:00 5.4 92.0 1015.2 1.6 E 6.4 0.0
07:05 5.5 93.0 1015.3 0.0 ENE 4.8 0.0
07:10 5.6 92.0 1015.3 0.0 ENE 4.8 0.0
07:10 5.6 92.0 1015.4 3.2 ENE 4.8 0.0
07:20 5.7 93.0 1015.1 0.0 ENE 4.8 0.0
07:25 5.8 92.0 1015.2 1.6 NE 6.4 0.0
07:30 5.8 92.0 1015.2 0.0 ESE 6.4 0.0
07:35 5.9 92.0 1015.3 4.8 E 8.0 0.0
07:40 6.0 91.0 1015.2 4.8 ENE 9.7 0.0
07:45 6.1 92.0 1015.3 6.4 NE 9.7 0.0
07:50 6.2 92.0 1015.3 0.0 NNE 8.0 0.0
07:55 6.3 91.0 1015.3 0.0 NNE 8.0 0.0
08:00 6.5 91.0 1015.6 0.0 NNE 6.4 0.0
08:05 6.7 91.0 1015.4 3.2 E 6.4 0.0
08:10 6.8 90.0 1015.5 1.6 E 9.7 0.0
08:10 6.9 91.0 1015.5 6.4 ENE 9.7 0.0
08:20 6.8 90.0 1015.5 3.2 ENE 14.5 0.0
08:25 6.9 90.0 1015.4 9.7 NE 14.5 0.0
08:30 6.9 90.0 1015.5 6.4 NE 14.5 0.0
08:35 7.1 91.0 1015.5 4.8 NE 14.5 0.0
08:40 7.2 90.0 1015.4 3.2 E 14.5 0.0
08:45 7.2 90.0 1015.5 14.5 ESE 16.1 0.0
08:50 7.3 90.0 1015.4 3.2 E 16.1 0.0
08:55 7.2 89.0 1015.4 12.9 ESE 16.1 0.0
09:00 7.3 90.0 1015.6 6.4 E 17.7 0.0
09:05 7.3 90.0 1015.4 3.2 E 11.3 0.0
09:10 7.4 90.0 1015.5 9.7 ESE 17.7 0.0
09:15 7.6 90.0 1015.4 11.3 ESE 17.7 0.0
09:20 7.7 89.0 1015.4 12.9 ESE 19.3 0.0
09:25 7.7 90.0 1015.5 6.4 ESE 19.3 0.0
09:30 7.7 90.0 1015.5 9.7 ESE 17.7 0.0
09:35 7.7 91.0 1015.4 9.7 ESE 16.1 0.0
09:40 7.7 90.0 1015.5 11.3 ESE 17.7 0.0
09:45 7.7 90.0 1015.4 6.4 SSE 17.7 0.0
09:50 7.7 91.0 1015.5 6.4 E 17.7 0.0
09:55 7.7 90.0 1015.5 3.2 ESE 17.7 0.0
10:00 7.8 90.0 1015.6 4.8 ESE 14.5 0.0
10:05 7.7 90.0 1015.7 6.4 ESE 14.5 0.0
10:10 7.8 90.0 1015.5 4.8 E 16.1 0.0
10:10 7.8 90.0 1015.6 6.4 E 16.1 0.0
10:20 7.7 90.0 1015.5 4.8 E 17.7 0.0
10:25 7.7 90.0 1015.5 4.8 E 17.7 0.0
10:30 7.8 90.0 1015.5 9.7 E 12.9 0.0
10:35 7.8 90.0 1015.5 8.0 SE 14.5 0.0
10:40 7.8 90.0 1015.5 11.3 E 16.1 0.0
10:45 7.9 90.0 1015.5 1.6 E 16.1 0.0
10:50 7.8 90.0 1015.5 3.2 ESE 12.9 0.0
10:55 7.8 89.0 1015.4 6.4 E 14.5 0.0
11:00 7.8 90.0 1015.4 9.7 ESE 16.1 0.0
11:05 7.8 90.0 1015.3 11.3 ESE 17.7 0.0
11:10 7.8 91.0 1015.2 4.8 ESE 17.7 0.0
11:15 7.9 91.0 1015.1 3.2 ESE 14.5 0.0
11:20 7.9 90.0 1015.2 12.9 ESE 19.3 0.0
11:25 8.0 90.0 1015.3 11.3 ESE 19.3 0.0
11:30 8.2 91.0 1015.3 11.3 E 20.9 0.0
11:35 8.3 90.0 1015.1 11.3 ESE 19.3 0.0
11:40 8.7 90.0 1015.2 11.3 ESE 19.3 0.0
11:45 9.0 91.0 1015.1 11.3 E 16.1 0.0
11:50 9.2 87.0 1015.1 12.9 ESE 19.3 0.0
11:55 9.3 87.0 1015.1 6.4 ESE 19.3 0.0
12:00 9.3 88.0 1015.1 6.4 E 17.7 0.0
12:05 9.4 87.0 1015.0 9.7 ESE 16.1 0.0
12:10 9.3 86.0 1015.1 4.8 E 14.5 0.0
12:10 9.3 87.0 1015.0 9.7 ESE 14.5 0.0
12:20 9.3 87.0 1015.0 6.4 ESE 12.9 0.0
12:25 9.3 88.0 1015.2 9.7 ESE 11.3 0.0
12:30 9.2 87.0 1015.1 6.4 SE 14.5 0.0
12:35 9.2 88.0 1015.2 3.2 E 14.5 0.0
12:40 9.1 87.0 1015.3 3.2 ENE 8.0 0.0
12:45 9.1 88.0 1015.3 6.4 E 9.7 0.0
12:50 9.1 89.0 1015.3 3.2 ENE 9.7 0.0
12:55 9.1 89.0 1015.2 3.2 E 8.0 0.0
13:00 9.1 87.0 1015.4 3.2 ENE 8.0 0.0
13:05 9.2 88.0 1015.3 3.2 ENE 8.0 0.0
13:10 9.3 89.0 1015.3 0.0 ESE 6.4 0.0
13:15 9.3 88.0 1015.4 1.6 ENE 6.4 0.0
13:20 9.4 87.0 1015.3 3.2 E 9.7 0.0
13:25 9.4 87.0 1015.2 4.8 ESE 12.9 0.0
13:30 9.5 87.0 1015.2 1.6 ENE 12.9 0.0
13:35 9.5 86.0 1015.3 1.6 ENE 8.0 0.0
13:40 9.5 86.0 1015.2 3.2 ENE 8.0 0.0
13:45 9.6 86.0 1015.2 6.4 ENE 9.7 0.0
13:50 9.6 86.0 1015.2 4.8 ENE 11.3 0.0
13:55 9.6 85.0 1015.1 4.8 ENE 9.7 0.0
14:00 9.7 86.0 1015.0 4.8 NE 9.7 0.0
14:05 9.7 85.0 1014.9 6.4 NE 8.0 0.0
14:10 9.6 85.0 1014.9 6.4 ENE 16.1 0.0
14:15 9.6 85.0 1014.9 8.0 ENE 16.1 0.0
14:20 9.6 85.0 1014.8 4.8 NE 11.3 0.0
14:25 9.6 85.0 1014.7 1.6 ENE 11.3 0.0
14:30 9.6 84.0 1014.8 4.8 NE 12.9 0.0
14:35 9.7 86.0 1014.9 4.8 NE 12.9 0.0
14:40 9.6 84.0 1014.9 4.8 NE 11.3 0.0
14:45 9.6 85.0 1015.0 4.8 E 11.3 0.0
14:50 9.6 85.0 1014.9 1.6 ENE 6.4 0.0
14:55 9.6 86.0 1014.8 0.0 E 6.4 0.0
15:00 9.7 86.0 1014.8 3.2 E 6.4 0.0
15:05 9.7 86.0 1015.0 1.6 ESE 9.7 0.0
15:10 9.8 86.0 1014.9 0.0 ESE 4.8 0.0
15:15 9.8 87.0 1014.9 6.4 ESE 11.3 0.0
15:20 9.7 86.0 1014.9 11.3 ESE 11.3 0.0
15:25 9.7 86.0 1014.9 6.4 SE 11.3 0.0
15:30 9.6 88.0 1014.9 4.8 ESE 12.9 0.0
15:35 9.4 87.0 1015.0 6.4 ESE 12.9 0.0
15:40 9.3 87.0 1015.0 1.6 ENE 11.3 0.0
15:45 9.3 87.0 1014.9 1.6 NE 9.7 0.0
15:50 9.1 87.0 1015.0 4.8 ENE 11.3 0.0
15:55 9.1 88.0 1015.1 4.8 E 11.3 0.0
16:00 8.9 88.0 1015.0 1.6 ENE 8.0 0.0
16:05 8.9 89.0 1015.0 1.6 NE 6.4 0.0
16:10 8.9 89.0 1015.0 1.6 ENE 6.4 0.0
16:15 8.8 89.0 1015.0 4.8 E 11.3 0.0
16:20 8.8 89.0 1015.1 3.2 ENE 11.3 0.0
16:25 8.7 90.0 1015.1 3.2 NE 6.4 0.0
16:30 8.7 90.0 1015.1 1.6 NE 9.7 0.0
16:35 8.6 90.0 1015.1 6.4 NE 11.3 0.2
16:40 8.6 90.0 1015.1 0.0 E 11.3 0.0
16:45 8.4 90.0 1015.0 3.2 ENE 8.0 0.0
16:50 8.4 91.0 1015.1 4.8 NE 8.0 0.0
16:55 8.4 91.0 1015.2 0.0 ESE 9.7 0.0
17:00 8.4 92.0 1015.2 1.6 ESE 9.7 0.0
17:05 8.3 91.0 1015.2 1.6 SE 6.4 0.0
17:10 8.3 91.0 1015.2 1.6 E 9.7 0.0
17:15 8.3 92.0 1015.2 4.8 NE 9.7 0.0
17:20 8.2 91.0 1015.2 3.2 NNE 9.7 0.0
17:25 8.1 91.0 1015.3 3.2 ENE 8.0 0.0
17:30 8.1 91.0 1015.3 1.6 E 6.4 0.0
17:35 7.9 90.0 1015.3 4.8 ENE 9.7 0.0
17:40 7.9 91.0 1015.4 1.6 ENE 9.7 0.0
17:45 7.8 90.0 1015.4 3.2 E 6.4 0.0
17:50 7.8 91.0 1015.4 0.0 E 6.4 0.0
17:55 7.7 91.0 1015.5 3.2 NE 6.4 0.0
18:00 7.6 92.0 1015.5 1.6 ENE 6.4 0.2
18:05 7.6 92.0 1015.5 3.2 E 6.4 0.0
18:10 7.5 92.0 1015.6 3.2 NE 4.8 0.0
18:15 7.5 93.0 1015.5 1.6 ENE 6.4 0.0
18:20 7.4 93.0 1015.6 3.2 ENE 9.7 0.2
18:25 7.4 93.0 1015.7 1.6 ENE 9.7 0.0
18:30 7.3 94.0 1015.8 0.0 ENE 4.8 0.2
18:35 7.3 94.0 1016.0 4.8 ESE 4.8 0.0
18:40 7.3 94.0 1016.0 3.2 ESE 6.4 0.2
18:45 7.2 94.0 1016.0 1.6 ENE 9.7 0.0
18:50 7.2 94.0 1016.1 1.6 ESE 9.7 0.0
18:55 7.2 94.0 1016.1 1.6 ESE 6.4 0.2
19:00 7.2 94.0 1016.1 0.0 ESE 6.4 0.0
19:05 7.1 94.0 1016.2 3.2 ENE 9.7 0.0
19:10 7.1 94.0 1016.2 1.6 ESE 9.7 0.0
19:15 7.1 94.0 1016.2 1.6 E 9.7 0.0
19:20 7.1 94.0 1016.4 1.6 E 6.4 0.0
19:25 7.0 94.0 1016.5 6.4 E 6.4 0.0
19:30 6.9 94.0 1016.4 3.2 ENE 9.7 0.0
19:35 6.9 94.0 1016.5 1.6 NE 9.7 0.0
19:40 6.9 94.0 1016.4 3.2 E 11.3 0.2
19:45 6.8 94.0 1016.4 1.6 NE 8.0 0.0
19:50 6.8 94.0 1016.3 1.6 NE 8.0 0.0
19:55 6.8 94.0 1016.4 0.0 E 9.7 0.0
20:00 6.7 94.0 1016.5 4.8 ESE 6.4 0.0
20:05 6.7 94.0 1016.5 1.6 E 6.4 0.0
20:10 6.6 95.0 1016.4 1.6 E 6.4 0.0
20:15 6.6 95.0 1016.6 0.0 ENE 4.8 0.0
20:20 6.6 95.0 1016.5 0.0 ENE 3.2 0.0
20:25 6.5 95.0 1016.6 1.6 ENE 4.8 0.0
20:30 6.4 95.0 1016.5 1.6 ENE 4.8 0.0
20:35 6.4 95.0 1016.6 1.6 ENE 3.2 0.0
20:40 6.4 95.0 1016.5 1.6 ESE 4.8 0.0
20:45 6.3 95.0 1016.5 3.2 ESE 4.8 0.0
20:50 6.3 95.0 1016.7 1.6 ESE 4.8 0.0
20:55 6.3 95.0 1016.6 3.2 ESE 6.4 0.0
21:00 6.3 95.0 1016.6 3.2 ESE 6.4 0.0
21:05 6.3 95.0 1016.7 1.6 ESE 6.4 0.0
21:10 6.3 95.0 1016.8 1.6 E 6.4 0.0
21:15 6.3 95.0 1016.7 3.2 E 4.8 0.0
21:20 6.3 95.0 1016.8 1.6 ENE 4.8 0.0
21:25 6.3 95.0 1017.0 3.2 E 4.8 0.0
21:30 6.3 95.0 1016.9 1.6 E 4.8 0.0
21:35 6.3 95.0 1016.9 0.0 ESE 4.8 0.0
21:40 6.3 95.0 1016.8 6.4 ESE 6.4 0.0
21:45 6.3 95.0 1016.9 1.6 ESE 6.4 0.0
21:50 6.3 95.0 1016.9 0.0 ESE 4.8 0.0
21:55 6.2 95.0 1016.8 1.6 ESE 4.8 0.0
22:00 6.2 96.0 1016.9 1.6 ESE 4.8 0.0
22:05 6.2 96.0 1016.9 1.6 ESE 4.8 0.0
22:10 6.2 96.0 1016.8 1.6 ESE 3.2 0.0
22:15 6.2 96.0 1016.8 1.6 ESE 3.2 0.0
22:20 6.2 96.0 1016.9 1.6 ESE 3.2 0.0
22:25 6.2 96.0 1016.9 0.0 ESE 3.2 0.0
22:30 6.2 96.0 1016.9 0.0 ESE 1.6 0.0
Màxima 9.8 96.0 1017.0 20.9 E 20.9 0.2
Mínima 4.5 84.0 1013.9
Total 1.4